Location: Beaurecueil
(43.5122°N, 5.5450°E)
Time: 12:53:07
(UTC+00:00)

USA 234 - Pass Details

Date: 18 September 2020
Orbit: 1102 x 1106 km, 123.0° (Epoch: 16 October)

Event Time Altitude Azimuth Distance (km) Brightness Sun altitude
Exits shadow 20:19:21 - 48° (NE) 3,385 5.7 -27.8°
Reaches altitude 10° 20:20:27 10° 47° (NE) 2,966 5.4 -28.0°
Maximum altitude 20:26:58 73° 324° (NW) 1,151 3.4 -29.0°
Drops below altitude 10° 20:33:28 10° 241° (WSW) 2,958 5.8 -30.0°
Sets 20:35:57 0° 240° (WSW) 3,915 6.4 -30.3°
